University AP, Davis, CA, CA

9:50 PM PST on December 10, 2019 (GMT -0800)
University AP, Davis, CA

Weather History for KEDU - October, 2019

Change the Weather History Date:

Thursday, October 17, 2019

  Actual Average (KSMF) Record (KSMF)
Temperature  
Mean Temperature 63 °F -  
Max Temperature 73 °F 78 °F 93 °F (1961)
Min Temperature 53 °F 48 °F 37 °F (1998)
Degree Days  
Heating Degree Days 2    
Growing Degree Days 13 (Base 50)    
Moisture  
Dew Point 45 °F    
Average Humidity 57    
Maximum Humidity 88    
Minimum Humidity 25    
Precipitation  
Precipitation 0.00 in - - ()
Sea Level Pressure  
Sea Level Pressure 29.92 in    
Wind  
Wind Speed 5 mph ()    
Max Wind Speed 16 mph    
Max Gust Speed 23 mph    
Visibility 10.0 miles    
Events      
Averages and records for this station are not official NWS values.
T = Trace of Precipitation, MM = Missing Value Source: Averaged Metar Reports

Daily Weather History Graph

Daily Weather History Graph

Search for Another Location

Airport or City:

Astronomy

Oct. 17, 2019 Rise Set
Actual Time 7:18 AM PDT 6:26 PM PDT
Civil Twilight 6:51 AM PDT 6:53 PM PDT
Nautical Twilight 6:20 AM PDT 7:23 PM PDT
Astronomical Twilight 5:49 AM PDT 7:54 PM PDT
Moon 9:04 PM PDT (10/17) 10:53 AM PDT (10/17)
Length of Visible Light 12h 01m
Length of Day
11h 08m
Waning Gibbous, 86% of the Moon is Illuminated
Oct 17
Waning Gibbous
Oct 21
Last Quarter
Oct 27
New
Nov 4
First Quarter
Nov 12
Full

Hourly Weather History & Observations

Time (PDT) Temp. Dew Point Humidity Pressure Visibility Wind Dir Wind Speed Gust Speed Precip Events Conditions
12:15 AM 59.0 °F 50.0 °F 72% 29.85 in 10.0 mi South 5.8 mph - N/A   Clear
12:35 AM 60.8 °F 51.8 °F 72% 29.84 in 10.0 mi South 6.9 mph - N/A   Mostly Cloudy
12:50 AM 60.8 °F 53.6 °F 77% 29.84 in 10.0 mi South 8.1 mph - N/A   Mostly Cloudy
1:15 AM 60.8 °F 53.6 °F 77% 29.85 in 10.0 mi SW 8.1 mph - N/A   Scattered Clouds
1:30 AM 60.8 °F 53.6 °F 77% 29.85 in 10.0 mi SSW 9.2 mph - N/A   Partly Cloudy
1:55 AM 59.0 °F 53.6 °F 82% 29.85 in 10.0 mi SSW 5.8 mph - N/A   Partly Cloudy
2:15 AM 59.0 °F 53.6 °F 82% 29.86 in 10.0 mi SSW 6.9 mph - N/A   Clear
2:30 AM 59.0 °F 53.6 °F 82% 29.86 in 10.0 mi SSW 5.8 mph - N/A   Partly Cloudy
2:55 AM 59.0 °F 53.6 °F 82% 29.85 in 10.0 mi South 8.1 mph - N/A   Mostly Cloudy
3:15 AM 59.0 °F 53.6 °F 82% 29.85 in 10.0 mi SW 5.8 mph - N/A   Scattered Clouds
3:35 AM 57.2 °F 51.8 °F 82% 29.85 in 10.0 mi SSE 5.8 mph - N/A   Clear
3:55 AM 57.2 °F 51.8 °F 82% 29.85 in 10.0 mi Calm Calm - N/A   Clear
4:15 AM 55.4 °F 50.0 °F 82% 29.85 in 10.0 mi SE 3.5 mph - N/A   Clear
4:35 AM 55.4 °F 51.8 °F 88% 29.85 in 10.0 mi SW 9.2 mph - N/A   Clear
4:55 AM 55.4 °F 51.8 °F 88% 29.85 in 10.0 mi South 6.9 mph - N/A   Clear
5:15 AM 55.4 °F 50.0 °F 82% 29.86 in 10.0 mi Calm Calm - N/A   Clear
5:35 AM 53.6 °F 50.0 °F 88% 29.87 in 10.0 mi SE 4.6 mph - N/A   Clear
5:55 AM 53.6 °F 50.0 °F 88% 29.87 in 10.0 mi Calm Calm - N/A   Clear
6:15 AM 53.6 °F 50.0 °F 88% 29.88 in 10.0 mi South 4.6 mph - N/A   Clear
6:35 AM 53.6 °F 50.0 °F 88% 29.89 in 10.0 mi SW 3.5 mph - N/A   Clear
6:55 AM 53.6 °F 50.0 °F 88% 29.89 in 10.0 mi SSW 3.5 mph - N/A   Clear
7:15 AM 53.6 °F 50.0 °F 88% 29.90 in 10.0 mi Calm Calm - N/A   Clear
7:35 AM 53.6 °F 50.0 °F 88% 29.90 in 10.0 mi SW 3.5 mph - N/A   Partly Cloudy
7:55 AM 55.4 °F 50.0 °F 82% 29.90 in 10.0 mi Calm Calm - N/A   Mostly Cloudy
8:15 AM 57.2 °F 50.0 °F 77% 29.91 in 10.0 mi Calm Calm - N/A   Partly Cloudy
8:35 AM 57.2 °F 50.0 °F 77% 29.91 in 10.0 mi Calm Calm - N/A   Clear
8:50 AM 55.4 °F 50.0 °F 82% 29.92 in 10.0 mi Calm Calm - N/A   Clear
9:15 AM 60.8 °F 46.4 °F 59% 29.92 in 10.0 mi NNW 6.9 mph - N/A   Clear
9:35 AM 64.4 °F 44.6 °F 49% 29.92 in 10.0 mi NNW 5.8 mph - N/A   Clear
9:55 AM 64.4 °F 46.4 °F 52% 29.93 in 10.0 mi NW 8.1 mph - N/A   Clear
10:35 AM 66.2 °F 46.4 °F 49% 29.95 in 10.0 mi North 9.2 mph - N/A   Clear
10:55 AM 68.0 °F 48.2 °F 49% 29.95 in 10.0 mi NNW 16.1 mph 21.9 mph N/A   Clear
11:15 AM 66.2 °F 50.0 °F 56% 29.95 in 10.0 mi North 11.5 mph - N/A   Clear
11:35 AM 68.0 °F 48.2 °F 49% 29.96 in 10.0 mi NNW 12.7 mph 23.0 mph N/A   Clear
11:55 AM 68.0 °F 48.2 °F 49% 29.96 in 10.0 mi NNE 13.8 mph 19.6 mph N/A   Clear
12:15 PM 68.0 °F 48.2 °F 49% 29.96 in 10.0 mi North 10.4 mph 19.6 mph N/A   Clear
12:35 PM 68.0 °F 48.2 °F 49% 29.96 in 10.0 mi North 12.7 mph - N/A   Clear
12:55 PM 68.0 °F 44.6 °F 43% 29.95 in 10.0 mi North 10.4 mph - N/A   Clear
1:15 PM 69.8 °F 42.8 °F 38% 29.95 in 10.0 mi NNW 8.1 mph - N/A   Clear
1:35 PM 71.6 °F 41.0 °F 33% 29.94 in 10.0 mi NE 11.5 mph - N/A   Clear
1:55 PM 71.6 °F 39.2 °F 31% 29.94 in 10.0 mi NW 3.5 mph - N/A   Clear
2:15 PM 71.6 °F 39.2 °F 31% 29.93 in 10.0 mi North 3.5 mph - N/A   Clear
2:35 PM 71.6 °F 37.4 °F 29% 29.93 in 10.0 mi NNE 5.8 mph - N/A   Clear
2:55 PM 71.6 °F 37.4 °F 29% 29.93 in 10.0 mi NE 5.8 mph - N/A   Clear
3:15 PM 71.6 °F 37.4 °F 29% 29.92 in 10.0 mi East 5.8 mph - N/A   Clear
3:35 PM 71.6 °F 37.4 °F 29% 29.92 in 10.0 mi WNW 5.8 mph - N/A   Clear
3:55 PM 73.4 °F 35.6 °F 25% 29.92 in 10.0 mi North 4.6 mph - N/A   Clear
4:15 PM 73.4 °F 37.4 °F 27% 29.92 in 10.0 mi Calm Calm - N/A   Clear
4:35 PM 71.6 °F 35.6 °F 27% 29.92 in 10.0 mi East 3.5 mph - N/A   Clear
4:55 PM 71.6 °F 35.6 °F 27% 29.92 in 10.0 mi Calm Calm - N/A   Clear
5:15 PM 71.6 °F 35.6 °F 27% 29.92 in 10.0 mi Calm Calm - N/A   Clear
5:35 PM 71.6 °F 35.6 °F 27% 29.92 in 10.0 mi NE 10.4 mph - N/A   Clear
5:55 PM 69.8 °F 35.6 °F 28% 29.92 in 10.0 mi ENE 6.9 mph - N/A   Clear
6:15 PM 68.0 °F 35.6 °F 30% 29.92 in 10.0 mi ENE 6.9 mph - N/A   Clear
6:35 PM 66.2 °F 35.6 °F 32% 29.92 in 10.0 mi NE 4.6 mph - N/A   Clear
6:55 PM 66.2 °F 37.4 °F 35% 29.93 in 10.0 mi North 3.5 mph - N/A   Clear
7:15 PM 64.4 °F 37.4 °F 37% 29.94 in 10.0 mi Calm Calm - N/A   Clear
7:35 PM 64.4 °F 37.4 °F 37% 29.95 in 10.0 mi NW 4.6 mph - N/A   Clear
7:55 PM 64.4 °F 39.2 °F 40% 29.95 in 10.0 mi NNW 3.5 mph - N/A   Clear
8:15 PM 64.4 °F 39.2 °F 40% 29.96 in 10.0 mi NNW 5.8 mph - N/A   Clear
8:35 PM 62.6 °F 39.2 °F 42% 29.96 in 10.0 mi NNW 4.6 mph - N/A   Clear
8:55 PM 60.8 °F 39.2 °F 45% 29.96 in 10.0 mi Calm Calm - N/A   Clear
9:15 PM 59.0 °F 39.2 °F 48% 29.96 in 10.0 mi Calm Calm - N/A   Clear
9:35 PM 59.0 °F 39.2 °F 48% 29.97 in 10.0 mi NW 3.5 mph - N/A   Clear
9:55 PM 59.0 °F 39.2 °F 48% 29.97 in 10.0 mi WNW 3.5 mph - N/A   Clear
10:15 PM 57.2 °F 39.2 °F 51% 29.98 in 10.0 mi Calm Calm - N/A   Clear
10:35 PM 53.6 °F 39.2 °F 58% 29.99 in 10.0 mi West 3.5 mph - N/A   Clear
10:55 PM 53.6 °F 39.2 °F 58% 29.99 in 10.0 mi West 4.6 mph - N/A   Clear
11:15 PM 55.4 °F 39.2 °F 54% 29.99 in 10.0 mi West 3.5 mph - N/A   Clear
11:35 PM 55.4 °F 39.2 °F 54% 30.00 in 10.0 mi NW 4.6 mph - N/A   Clear
11:55 PM 57.2 °F 39.2 °F 51% 30.00 in 10.0 mi Calm Calm - N/A   Clear